Meadow Lake, CO

3:45 PM MST on February 19, 2018 (GMT -0700)
Meadow Lake

Weather History for KFLY - August, 2014

Change the Weather History Date:

Saturday, August 9, 2014

  Actual Average (KCOS) Record (KCOS)
Temperature  
Mean Temperature 67 °F -  
Max Temperature 80 °F 80 °F 95 °F (1962)
Min Temperature 54 °F 56 °F 44 °F (1912)
Cooling Degree Days 2    
Growing Degree Days 17 (Base 50)    
Moisture  
Dew Point 47 °F    
Average Humidity 58    
Maximum Humidity 97    
Minimum Humidity 18    
Precipitation  
Precipitation 0.00 in - - ()
Sea Level Pressure  
Sea Level Pressure 30.27 in    
Wind  
Wind Speed 5 mph (NNW)    
Max Wind Speed 17 mph    
Max Gust Speed 25 mph    
Visibility 10 miles    
Events Rain , Thunderstorm    
Averages and records for this station are not official NWS values.
T = Trace of Precipitation, MM = Missing Value Source: NWS Daily Summary

Daily Weather History Graph

Daily Weather History Graph

Search for Another Location

Airport or City:

Trip Planner

Search our weather history database for the weather conditions in past years. The results will help you decide how hot, cold, wet, or windy it might be!

Date:

Astronomy

Aug. 09, 2014 Rise Set
Actual Time 6:06 AM MDT 8:00 PM MDT
Civil Twilight 5:37 AM MDT 8:29 PM MDT
Nautical Twilight 5:02 AM MDT 9:04 PM MDT
Astronomical Twilight 4:24 AM MDT 9:42 PM MDT
Moon 7:04 PM MDT (8/9) 4:49 AM MDT (8/9)
Length of Visible Light 14h 52m
Length of Day
13h 54m
Waxing Gibbous, 98% of the Moon is Illuminated
Aug 9
Waxing Gibbous
Aug 10
Full
Aug 17
Last Quarter
Aug 25
New
Sep 2
First Quarter

Hourly Weather History & Observations

Time (MDT) Temp. Dew Point Humidity Pressure Visibility Wind Dir Wind Speed Gust Speed Precip Events Conditions
12:16 AM 59.5 °F 53.4 °F 80% 30.26 in 10.0 mi Calm Calm - N/A   Clear
12:36 AM 59.9 °F 54.1 °F 81% 30.26 in 10.0 mi Calm Calm - N/A   Clear
12:56 AM 60.6 °F 56.3 °F 86% 30.25 in 10.0 mi Calm Calm - N/A   Clear
1:16 AM 58.8 °F 55.6 °F 89% 30.25 in 10.0 mi Calm Calm - N/A   Clear
1:36 AM 56.8 °F 54.7 °F 92% 30.24 in 10.0 mi Calm Calm - N/A   Clear
1:56 AM 57.0 °F 55.6 °F 95% 30.24 in 10.0 mi Calm Calm - N/A   Clear
2:16 AM 56.5 °F 55.4 °F 96% 30.23 in 10.0 mi Calm Calm - N/A   Clear
2:36 AM 56.3 °F 55.2 °F 96% 30.23 in 10.0 mi Calm Calm - N/A   Clear
2:56 AM 55.4 °F 54.0 °F 95% 30.22 in 10.0 mi NNW 3.5 mph - N/A   Clear
3:16 AM 56.1 °F 55.2 °F 97% 30.22 in 7.0 mi NNW 4.6 mph - N/A   Clear
3:36 AM 56.7 °F 55.8 °F 97% 30.22 in 7.0 mi NNW 4.6 mph - N/A   Clear
3:56 AM 56.8 °F 55.9 °F 97% 30.22 in 7.0 mi NW 6.9 mph - N/A   Clear
4:16 AM 56.7 °F 55.9 °F 97% 30.22 in 7.0 mi NW 6.9 mph - N/A   Clear
4:36 AM 56.3 °F 55.4 °F 97% 30.22 in 7.0 mi NW 5.8 mph - N/A   Clear
4:56 AM 54.7 °F 53.4 °F 96% 30.22 in 10.0 mi NW 6.9 mph - N/A   Clear
5:16 AM 55.2 °F 53.8 °F 95% 30.22 in 10.0 mi NW 6.9 mph - N/A   Clear
5:36 AM 55.8 °F 54.0 °F 94% 30.23 in 10.0 mi WNW 5.8 mph - N/A   Clear
5:56 AM 54.3 °F 52.2 °F 92% 30.23 in 10.0 mi NW 6.9 mph - N/A   Clear
6:16 AM 55.8 °F 52.9 °F 90% 30.24 in 10.0 mi NW 8.1 mph - N/A Thunderstorm Clear
6:36 AM 57.2 °F 52.3 °F 84% 30.24 in 10.0 mi NNW 5.8 mph - N/A   Clear
6:56 AM 57.9 °F 49.1 °F 72% 30.24 in 10.0 mi NNW 3.5 mph - N/A   Clear
7:16 AM 60.4 °F 46.0 °F 59% 30.24 in 10.0 mi North 4.6 mph - N/A   Clear
7:36 AM 62.8 °F 48.0 °F 59% 30.25 in 10.0 mi NNW 8.1 mph - N/A   Clear
7:56 AM 66.9 °F 46.2 °F 47% 30.25 in 10.0 mi NNW 6.9 mph - N/A   Clear
8:16 AM 70.0 °F 45.0 °F 41% 30.25 in 10.0 mi NNW 6.9 mph - N/A   Clear
8:36 AM 72.0 °F 43.7 °F 36% 30.26 in 10.0 mi NNW 5.8 mph - N/A   Clear
8:56 AM 73.9 °F 40.6 °F 30% 30.26 in 10.0 mi NW 5.8 mph - N/A   Clear
9:16 AM 75.4 °F 38.1 °F 26% 30.26 in 10.0 mi NW 4.6 mph - N/A   Clear
9:36 AM 76.5 °F 36.5 °F 24% 30.26 in 10.0 mi NNW 4.6 mph - N/A   Clear
9:56 AM 77.4 °F 36.3 °F 23% 30.26 in 10.0 mi Calm Calm - N/A   Clear
10:16 AM 77.9 °F 34.2 °F 20% 30.27 in 10.0 mi Calm Calm - N/A   Clear
10:36 AM 79.2 °F 33.6 °F 19% 30.27 in 10.0 mi West 6.9 mph - N/A   Clear
11:16 AM 79.7 °F 32.9 °F 18% 30.27 in 10.0 mi WNW 5.8 mph - N/A   Clear
11:36 AM 80.4 °F 32.7 °F 18% 30.27 in 10.0 mi SW 4.6 mph - N/A   Clear
11:56 AM 80.4 °F 44.2 °F 28% 30.27 in 10.0 mi SSW 6.9 mph 23.0 mph N/A   Clear
12:16 PM 79.5 °F 39.6 °F 24% 30.26 in 10.0 mi SE 6.9 mph - N/A   Scattered Clouds
12:36 PM 76.1 °F 43.0 °F 31% 30.27 in 10.0 mi SW 4.6 mph - N/A   Mostly Cloudy
12:56 PM 79.5 °F 45.3 °F 30% 30.25 in 10.0 mi ENE 9.2 mph - N/A   Mostly Cloudy
1:16 PM 79.9 °F 46.9 °F 31% 30.26 in 10.0 mi ENE 17.3 mph 21.9 mph N/A   Scattered Clouds
1:36 PM 74.1 °F 43.7 °F 34% 30.26 in 10.0 mi NE 12.7 mph - N/A Thunderstorm Mostly Cloudy
1:56 PM 65.3 °F 40.3 °F 40% 30.27 in 2.5 mi ESE 6.9 mph 23.0 mph N/A Rain , Thunderstorm Light Thunderstorms and Rain
2:16 PM 74.1 °F 44.1 °F 34% 30.25 in 10.0 mi East 9.2 mph 17.3 mph N/A Thunderstorm Thunderstorm
2:56 PM 66.7 °F 47.1 °F 49% 30.30 in 10.0 mi North 16.1 mph 25.3 mph N/A   Scattered Clouds
3:16 PM 71.4 °F 44.6 °F 38% 30.29 in 10.0 mi North 17.3 mph 21.9 mph N/A Thunderstorm Clear
3:56 PM 76.6 °F 43.5 °F 31% 30.27 in 10.0 mi NNE 10.4 mph - N/A   Clear
4:16 PM 72.9 °F 40.6 °F 31% 30.28 in 10.0 mi North 17.3 mph 21.9 mph N/A   Scattered Clouds
4:36 PM 71.8 °F 40.6 °F 32% 30.28 in 10.0 mi North 9.2 mph - N/A   Mostly Cloudy
4:56 PM 74.5 °F 43.3 °F 33% 30.28 in 10.0 mi Calm Calm - N/A   Scattered Clouds
5:16 PM 74.3 °F 44.1 °F 34% 30.28 in 10.0 mi ENE 5.8 mph - N/A   Scattered Clouds
5:36 PM 74.1 °F 45.1 °F 35% 30.29 in 10.0 mi ENE 6.9 mph - N/A   Mostly Cloudy
5:56 PM 68.9 °F 47.3 °F 46% 30.28 in 10.0 mi NNE 9.2 mph - N/A   Mostly Cloudy
6:16 PM 71.8 °F 42.3 °F 34% 30.28 in 10.0 mi North 16.1 mph 24.2 mph N/A   Mostly Cloudy
6:36 PM 73.4 °F 45.7 °F 37% 30.29 in 10.0 mi North 11.5 mph 19.6 mph N/A   Scattered Clouds
6:56 PM 71.2 °F 46.2 °F 41% 30.30 in 10.0 mi North 12.7 mph 17.3 mph N/A   Clear
7:16 PM 68.5 °F 45.5 °F 44% 30.30 in 10.0 mi NNE 10.4 mph - N/A   Clear
7:56 PM 61.9 °F 48.4 °F 61% 30.31 in 10.0 mi North 9.2 mph - N/A   Clear
8:16 PM 60.1 °F 48.4 °F 65% 30.31 in 10.0 mi North 6.9 mph - N/A   Clear
8:36 PM 59.2 °F 48.2 °F 67% 30.31 in 10.0 mi North 5.8 mph - N/A   Clear
8:56 PM 58.1 °F 49.1 °F 72% 30.32 in 10.0 mi WNW 5.8 mph - N/A   Clear
9:36 PM 57.4 °F 48.0 °F 71% 30.34 in 10.0 mi NNW 5.8 mph - N/A   Clear
9:56 PM 57.4 °F 47.5 °F 70% 30.36 in 10.0 mi NW 5.8 mph - N/A   Clear
10:16 PM 57.6 °F 47.1 °F 68% 30.36 in 10.0 mi WNW 6.9 mph - N/A   Clear
10:36 PM 55.4 °F 46.4 °F 72% 30.36 in 10.0 mi WNW 6.9 mph - N/A   Clear
10:56 PM 57.4 °F 46.8 °F 68% 30.36 in 10.0 mi NW 5.8 mph - N/A   Clear
11:16 PM 58.5 °F 46.9 °F 66% 30.37 in 10.0 mi NW 6.9 mph - N/A   Clear
11:36 PM 59.4 °F 46.6 °F 63% 30.37 in 10.0 mi NW 8.1 mph - N/A   Clear
11:56 PM 59.2 °F 46.6 °F 63% 30.37 in 10.0 mi NW 8.1 mph - N/A   Clear